Wind_Speed
25 24 24 26 26 24 23 22 22 22 23 25 29 29 26 25 24 24 24 24 24 23 23 22 22 20 21 21 21 21 20 21 19 18 18 20 26 23 18 15 17 20 12 8 10 9 9 11 11 8 7 4 3 2 3 3 3 4 5 6 7 7 6 3 5 3 2 2 4 6 6 7 5 6 4 2 6 6 4 7 5 4 5 3 4 6 6 10
25 25 25 25 26 26 24 23 23 23 23 23 26 29 28 27 25 24 24 25 24 24 23 23 23 21 21 20 20 21 19 24 23 21 27 28 27 25 22 17 13 17 17 12 13 14 12 11 11 10 7 4 3 3 3 4 4 5 6 7 8 6 1 3 2 2 2 3 3 3 5 6 2 4 6 5 7 8 7 8 8 8 8 7 6 5 6 10
27 26 26 26 26 27 25 24 23 23 23 23 24 27 29 28 26 25 24 25 25 24 24 24 24 22 21 19 20 19 17 21 20 21 33 34 30 27 25 23 14 14 19 15 13 15 13 12 12 10 8 6 5 4 5 5 4 7 7 7 8 6 2 2 1 2 3 4 3 1 2 5 3 2 4 6 7 8 9 7 8 9 9 11 10 9 8 9
28 27 27 26 26 27 27 25 24 24 24 23 23 25 28 29 28 27 25 25 25 25 24 24 24 22 22 20 18 16 15 15 12 19 33 34 34 31 26 26 19 14 20 17 12 14 14 12 12 10 9 8 6 5 6 6 5 6 6 9 7 3 3 1 1 2 3 3 4 1 0 5 3 1 3 6 8 7 8 8 8 8 7 10 12 11 11 10
29 28 27 27 27 27 28 27 25 25 24 23 23 23 26 30 29 27 25 25 25 25 24 24 24 23 22 18 17 14 10 8 4 12 27 31 33 32 28 28 24 18 18 18 13 12 13 12 11 10 9 9 8 6 8 9 6 6 7 12 10 4 4 0 3 2 3 1 3 3 3 3 0 3 7 8 9 4 1 3 4 3 1 6 11 12 12 12
30 29 29 28 27 28 28 29 27 25 24 23 23 23 24 29 30 29 27 25 25 25 24 24 23 22 21 17 17 15 10 5 4 2 10 21 30 31 30 29 27 21 17 18 15 12 12 11 11 10 9 10 12 9 10 11 7 7 9 11 12 7 5 1 3 2 1 2 3 3 3 3 3 7 7 9 12 4 6 5 4 4 4 5 9 10 11 12
31 30 30 30 29 28 29 30 28 26 25 23 23 24 23 27 30 30 28 26 25 25 24 23 23 22 19 16 13 11 9 8 2 4 4 9 24 30 29 28 26 22 18 18 17 14 12 13 13 11 10 11 13 11 12 11 9 9 10 10 9 7 8 2 2 2 1 3 2 2 3 4 8 6 3 6 12 9 1 3 4 4 5 4 7 9 10 11
32 31 31 31 30 29 29 30 28 26 25 24 23 24 24 25 28 31 30 28 25 26 25 23 22 22 19 15 9 7 10 10 8 13 12 7 16 26 25 24 25 22 19 20 18 16 14 15 15 11 11 12 11 12 12 10 10 12 12 11 6 4 8 4 2 3 3 3 1 2 5 8 8 3 4 8 11 11 6 4 2 2 2 3 6 8 9 10
33 32 32 32 31 30 30 30 28 26 26 25 24 24 25 25 27 31 31 30 26 26 26 23 23 23 22 16 8 10 11 11 14 17 16 11 12 23 23 21 25 22 19 20 19 19 15 13 16 13 12 12 12 13 12 11 9 11 14 13 7 6 8 5 4 6 5 4 3 5 9 10 4 1 7 12 13 11 6 5 6 5 6 7 7 8 9 10
33 33 33 33 32 31 30 31 30 28 26 26 25 24 26 25 26 30 31 31 28 27 26 24 24 23 23 15 9 11 4 6 15 17 18 14 11 21 23 22 23 23 21 19 20 20 16 13 15 12 9 9 11 13 13 12 6 5 12 14 9 7 6 5 6 7 5 5 6 8 12 10 4 3 9 9 9 9 6 7 8 7 9 10 9 9 9 10
34 34 33 33 33 32 31 31 32 30 28 26 25 25 26 26 26 29 31 31 29 28 26 26 25 24 23 14 11 11 2 8 10 12 16 14 16 21 23 24 23 24 22 20 21 21 18 12 7 6 4 5 7 9 11 10 5 3 8 11 9 7 6 7 7 7 5 5 7 8 11 10 6 7 11 7 4 4 6 9 9 8 9 10 10 9 8 9
35 35 35 34 33 33 32 31 32 32 29 26 26 26 26 27 26 29 30 30 30 28 27 28 27 26 21 13 14 11 4 9 9 9 15 16 20 23 22 22 22 24 22 19 19 21 20 8 4 7 2 3 7 6 7 6 5 5 6 8 10 10 10 10 9 9 7 5 6 4 8 12 12 13 14 11 9 8 9 10 9 9 9 9 10 9 8 9
35 36 36 34 33 33 33 32 31 31 31 28 27 27 27 27 26 28 30 30 31 29 28 28 28 28 19 9 13 13 6 9 8 9 15 19 23 25 21 18 19 21 20 19 17 17 18 8 6 7 2 2 7 2 1 6 6 7 7 8 9 9 10 12 12 10 9 6 6 4 7 10 13 16 15 15 15 14 14 13 11 11 10 10 10 9 9 10
35 36 37 35 33 34 33 32 31 31 31 29 28 28 28 28 27 28 30 30 31 30 27 26 29 26 15 8 9 13 11 9 9 10 15 18 20 21 20 19 16 15 10 11 13 10 11 8 5 2 4 4 3 2 2 6 6 8 9 9 8 9 9 11 13 12 10 7 7 7 9 9 11 12 9 10 13 14 14 13 13 12 11 11 10 10 10 10
34 35 37 36 34 34 33 33 32 31 31 30 30 29 28 28 28 27 29 31 31 31 27 25 30 20 6 9 8 12 17 13 11 13 15 18 17 13 13 14 13 14 6 1 5 9 11 13 8 3 3 3 3 5 7 5 6 8 9 9 8 10 8 6 10 13 11 7 8 10 7 9 13 13 10 6 10 12 13 13 13 13 13 12 11 11 9 9
32 34 36 36 36 34 34 34 32 31 30 31 30 28 28 28 29 28 28 31 30 30 25 20 29 22 4 7 9 13 18 15 14 15 15 17 15 11 9 9 7 11 9 3 4 8 12 12 5 2 5 2 2 6 6 6 7 8 10 10 9 11 9 5 7 12 12 8 10 13 9 8 9 7 5 4 7 10 10 11 12 11 12 11 10 10 8 7
32 33 35 37 37 35 35 34 33 32 30 30 30 29 29 27 28 28 29 31 29 30 27 16 22 20 4 3 9 12 16 16 20 20 18 16 14 14 10 6 7 10 12 9 7 6 8 8 4 3 4 4 6 6 6 9 9 9 10 11 10 11 11 9 6 8 12 11 11 14 12 13 12 6 2 4 6 8 9 10 10 10 11 11 10 9 9 9
33 33 34 36 36 35 36 35 33 33 32 30 29 29 29 28 28 28 29 29 24 25 24 15 15 12 5 7 7 11 19 20 23 25 21 15 14 16 11 4 6 12 14 9 5 4 3 5 5 6 5 5 8 9 10 10 11 12 11 10 8 7 9 12 8 7 13 14 13 15 13 14 18 15 11 8 8 9 11 11 11 12 12 11 11 10 10 10
32 32 32 33 35 36 36 36 34 32 32 29 28 27 25 24 24 25 28 23 15 12 9 9 12 5 3 12 13 13 22 24 22 23 22 18 15 15 11 7 5 6 8 4 5 6 4 4 5 7 9 11 13 14 14 12 11 14 12 10 10 9 10 14 9 6 11 13 13 15 14 13 16 17 15 13 11 11 12 12 11 12 12 11 11 11 11 12
29 31 32 32 34 36 35 37 35 32 32 29 26 22 15 13 11 13 17 13 11 10 4 11 17 10 6 10 15 16 18 23 21 19 22 22 19 15 9 6 3 2 4 3 5 6 4 6 7 9 12 15 17 17 18 16 10 9 10 10 12 12 10 14 9 5 6 9 11 13 14 14 15 17 15 13 13 13 13 13 12 13 12 11 12 13 13 13
28 30 31 32 33 34 34 36 35 33 32 30 27 17 8 10 8 5 9 7 14 16 5 9 21 15 7 7 17 19 12 14 17 19 25 24 21 16 8 6 5 3 4 4 3 2 2 7 10 12 14 14 16 18 18 16 10 9 10 10 11 11 10 13 8 7 4 5 9 11 13 15 15 16 15 13 14 14 14 15 15 16 14 12 13 14 14 12
28 28 30 33 32 32 33 35 36 35 33 31 27 15 9 17 13 7 12 7 15 17 5 8 19 10 4 8 19 23 12 10 15 18 23 23 18 15 11 10 9 7 8 6 2 1 2 6 7 7 11 14 16 19 19 16 12 10 9 8 9 9 9 8 4 6 5 3 8 11 13 14 14 16 17 16 16 14 14 16 16 16 15 13 13 13 13 12
29 30 32 33 32 34 34 34 36 34 33 31 26 19 18 26 23 13 10 4 9 15 8 11 16 10 9 11 18 23 16 13 15 16 23 22 16 15 14 13 13 10 11 10 7 5 4 4 3 3 6 13 17 18 19 15 11 8 8 8 9 9 10 8 5 7 7 5 9 10 10 11 12 15 17 17 17 15 16 18 18 16 15 15 15 13 13 14
30 31 31 33 34 33 33 34 33 33 35 33 29 29 28 26 28 21 8 0 5 10 12 14 11 11 12 9 16 23 17 14 15 18 25 22 15 14 16 16 16 12 11 15 14 11 7 1 2 3 5 5 11 12 14 12 9 8 9 10 10 11 12 9 3 4 6 8 9 8 9 10 11 15 16 15 16 17 18 19 18 17 15 15 15 14 14 14
32 32 32 34 33 33 35 32 31 35 35 30 31 36 34 24 25 26 11 1 4 5 12 13 6 9 10 7 14 16 10 12 13 17 25 25 20 15 13 12 13 14 15 19 16 11 10 3 4 3 5 3 5 9 12 10 7 7 9 11 13 13 13 9 5 3 6 9 8 6 8 8 8 13 15 11 12 15 16 18 18 16 14 13 13 13 13 13
34 33 33 35 34 35 30 19 27 35 26 25 30 33 36 29 24 25 11 2 4 5 11 13 6 12 15 8 11 9 7 9 5 13 24 24 21 11 10 12 7 13 17 16 11 5 7 8 7 6 4 3 3 7 11 10 8 7 6 10 16 17 14 11 9 6 7 9 4 6 7 9 6 10 12 10 11 12 11 13 14 12 11 11 11 11 11 11
34 35 35 35 35 35 23 11 23 28 16 21 30 30 35 35 25 22 8 5 5 5 9 10 6 16 18 10 14 11 7 8 3 12 20 16 13 3 7 15 9 11 12 8 7 4 9 13 11 11 8 3 2 5 6 8 11 6 5 5 12 18 17 14 11 8 8 9 5 7 7 10 9 9 11 12 13 13 11 11 12 12 12 12 12 13 13 13
34 36 36 35 36 37 29 17 19 23 22 23 26 31 36 33 23 15 5 7 4 6 8 6 5 14 15 11 15 8 5 13 9 11 14 12 11 2 6 16 15 15 14 11 9 5 11 17 16 15 12 6 6 3 1 3 6 1 8 9 5 9 14 14 11 9 8 8 9 9 8 9 11 7 7 11 15 17 15 14 14 13 12 13 14 14 14 13
34 35 37 37 35 38 37 26 19 24 28 22 23 33 34 28 18 6 3 6 2 3 6 7 7 11 12 10 10 5 4 10 6 6 11 8 6 2 4 13 16 17 16 15 12 3 6 12 14 14 10 8 9 5 4 3 1 2 4 6 7 6 7 8 8 8 8 8 10 12 10 10 11 6 6 9 12 15 14 13 12 11 11 12 12 12 12 11
35 35 38 37 34 37 35 28 26 24 23 22 25 32 29 21 11 4 7 6 3 1 4 7 10 11 13 10 5 6 8 7 5 8 7 4 3 1 1 3 8 12 13 13 8 4 4 5 8 8 6 8 8 5 5 5 4 2 3 4 5 4 3 3 4 5 6 8 12 15 14 12 12 7 5 8 9 9 9 8 6 7 11 12 11 10 11 10
35 35 38 38 36 36 27 20 29 26 22 29 31 29 21 9 4 6 8 3 3 3 6 11 16 17 17 13 6 9 12 8 9 10 5 3 5 5 4 2 1 6 9 7 4 6 8 7 6 3 3 7 8 4 3 4 4 3 3 2 2 2 1 1 2 4 6 8 10 14 16 15 13 7 3 6 7 6 6 6 6 8 10 9 9 10 10 9
35 35 39 41 38 35 24 20 32 30 27 36 31 19 10 4 5 6 3 3 3 5 8 14 20 20 18 13 8 10 13 10 12 14 9 6 7 8 10 9 8 7 7 8 7 6 7 9 9 5 5 9 10 6 3 3 5 4 4 4 1 2 3 3 4 4 6 5 3 7 13 13 14 13 10 11 10 8 8 8 9 12 11 11 12 11 8 7
37 36 40 41 36 35 31 26 32 31 31 38 25 8 6 7 7 4 4 4 2 3 8 15 22 26 24 15 9 12 13 10 13 16 12 9 8 8 8 8 8 3 3 10 10 7 5 7 11 9 5 9 10 9 7 7 9 10 9 8 6 4 4 5 6 4 5 7 5 5 9 7 8 12 14 18 18 16 15 13 13 13 14 15 13 9 8 7
38 38 40 41 38 37 34 28 30 33 34 31 15 5 9 8 3 6 6 4 2 5 11 18 24 28 25 16 13 15 11 9 15 15 11 9 8 7 5 7 6 1 3 9 7 8 8 5 10 12 8 11 13 12 8 4 7 10 8 7 6 5 4 3 3 2 3 5 5 6 6 6 6 3 2 6 11 15 16 14 13 13 13 12 10 8 8 8
38 40 40 38 35 34 33 30 32 37 31 17 6 7 10 6 3 6 6 4 4 7 12 19 23 24 20 13 14 14 4 6 16 14 10 11 10 10 8 8 9 3 5 8 3 7 9 4 11 15 11 16 17 13 8 4 4 5 4 5 7 6 3 1 1 1 1 3 2 5 4 4 6 4 1 1 2 5 9 9 11 12 11 9 8 8 8 8
37 39 36 31 29 33 35 33 36 39 27 10 5 7 6 2 2 5 7 7 7 10 14 17 17 16 15 10 11 11 1 3 15 11 8 12 11 12 10 9 12 10 8 9 3 5 8 6 14 16 11 17 18 14 13 7 3 4 5 7 4 1 3 1 2 1 1 3 4 4 4 5 8 10 11 11 8 6 8 9 12 12 10 8 7 7 7 8
34 29 22 22 28 33 35 35 38 36 21 8 7 5 2 1 2 3 7 10 12 14 14 12 10 11 12 9 10 13 7 6 11 7 7 11 9 12 13 10 13 12 9 9 3 4 7 5 13 17 14 17 16 15 15 7 1 4 6 6 4 5 3 1 3 2 2 4 3 3 7 8 8 7 6 9 13 13 12 13 14 11 8 8 7 7 7 8
29 21 12 18 30 31 31 36 38 28 11 6 10 5 0 2 3 4 7 11 14 14 10 6 7 9 11 10 11 17 15 10 10 8 8 9 7 13 16 12 14 15 12 9 5 6 7 3 8 15 14 14 14 12 12 6 1 1 2 5 5 1 2 4 3 3 4 5 3 4 8 8 9 8 4 3 6 9 11 12 12 10 7 7 6 6 8 7
20 13 8 18 30 31 33 37 30 16 7 5 9 6 1 2 4 4 8 12 12 12 9 4 5 7 11 13 14 19 18 14 15 14 11 9 8 15 19 13 15 21 18 13 8 7 8 4 5 11 12 13 11 9 10 9 4 1 1 4 3 1 1 4 4 1 2 4 4 4 6 6 8 11 11 12 12 12 12 10 9 9 7 5 5 5 5 4
11 6 6 19 32 34 38 32 16 7 6 5 4 3 3 3 3 5 8 10 7 5 6 7 7 8 11 14 14 16 16 14 16 14 10 11 10 14 20 15 14 21 21 16 10 8 7 5 3 7 10 10 8 8 12 13 10 7 6 7 6 3 1 0 2 2 2 4 4 4 6 7 7 8 11 14 15 14 12 10 8 7 5 5 5 5 4 4
8 5 5 22 35 37 33 18 5 4 5 3 2 1 4 6 8 9 8 7 3 2 1 7 9 8 9 12 14 15 13 11 14 12 8 11 10 9 15 17 16 19 18 14 11 9 6 5 5 6 8 8 7 9 12 13 13 11 9 9 9 7 4 3 5 5 3 4 5 5 6 8 7 6 8 9 8 8 8 8 7 6 5 5 5 6 6 5
9 6 8 28 41 37 24 6 1 5 4 3 4 4 5 8 12 14 10 5 3 2 1 2 6 7 7 9 12 14 12 10 14 14 8 12 13 8 13 19 17 18 16 11 10 7 4 5 7 7 7 7 5 5 3 5 11 12 9 9 9 7 6 7 6 5 5 5 5 4 6 10 8 7 9 9 7 8 7 6 6 6 7 8 7 7 6 5
8 5 14 37 46 33 14 4 4 5 3 3 7 6 5 6 11 13 11 8 4 1 2 2 4 6 6 8 11 14 14 9 12 15 10 11 9 4 12 21 18 17 14 10 9 6 2 6 8 7 6 4 3 4 4 5 3 9 9 9 11 10 10 8 3 1 3 6 6 5 7 10 8 6 10 11 9 9 7 5 6 8 9 9 8 6 5 4
5 3 9 33 47 31 9 4 6 5 4 5 7 8 5 4 7 10 11 10 5 5 5 3 5 6 6 8 11 15 13 6 9 13 8 7 3 3 12 21 18 16 12 8 9 7 4 8 9 8 8 5 2 3 1 1 3 6 8 12 14 15 14 10 3 1 2 6 8 7 8 9 6 3 7 10 7 7 7 6 8 8 9 9 7 5 5 5
5 2 2 15 28 21 5 2 7 7 9 10 9 11 10 5 1 4 10 7 2 5 7 4 6 7 7 9 9 12 10 3 6 9 5 6 2 3 11 20 18 15 9 7 10 8 6 7 8 9 10 9 8 7 6 7 7 7 9 14 17 19 18 10 4 4 5 7 8 7 6 9 11 10 12 12 9 11 12 9 8 8 8 9 7 5 5 4
5 2 1 3 5 5 1 2 6 8 11 14 10 9 12 9 3 2 6 4 1 5 6 4 9 10 8 10 10 10 8 4 3 7 7 8 4 1 8 16 15 11 8 9 11 7 4 6 8 10 9 8 8 6 6 7 8 8 12 15 16 18 18 11 5 5 6 7 8 8 7 10 17 19 19 17 13 13 15 13 10 9 9 8 6 5 4 4
3 1 3 3 2 3 2 2 5 7 12 14 9 7 11 12 8 3 3 1 3 7 6 3 9 11 10 12 11 9 8 6 5 7 9 9 6 3 3 9 10 10 10 10 10 6 3 6 10 11 11 10 8 4 8 9 10 11 13 15 15 15 16 13 8 6 6 6 7 8 9 12 19 22 22 20 15 13 15 15 13 12 12 11 9 9 9 9
2 1 1 0 2 5 6 6 7 8 10 10 7 11 15 13 12 7 1 1 5 8 5 2 8 13 14 14 10 8 8 6 4 9 10 8 8 7 4 2 4 6 8 10 8 5 4 7 10 11 11 12 10 4 8 6 8 8 9 12 14 14 15 13 12 11 10 8 7 7 9 13 19 23 21 20 17 15 16 17 15 14 14 13 14 14 15 14
3 3 1 3 2 8 10 10 11 10 8 7 8 13 17 16 14 8 4 6 8 7 7 7 10 14 16 15 11 9 10 8 6 8 8 8 9 10 7 4 2 2 7 10 5 1 3 6 9 10 10 12 13 10 6 5 6 8 10 10 10 11 13 13 13 14 15 15 13 14 16 17 18 22 23 21 18 16 16 17 17 16 14 13 15 16 15 15
3 3 2 2 5 9 11 11 12 10 7 7 9 12 13 15 14 8 5 7 10 10 9 12 15 14 15 15 11 10 12 11 10 11 11 11 10 9 7 6 6 5 7 8 4 1 3 6 7 8 9 10 11 13 12 11 10 10 11 11 9 10 11 11 12 13 14 16 18 19 19 17 15 18 23 23 18 14 16 20 20 16 12 12 15 15 14 14
2 1 2 6 9 10 12 11 10 9 7 6 8 10 11 12 13 12 6 3 3 8 10 15 18 12 11 12 8 8 9 8 9 13 14 13 10 8 6 6 10 11 7 7 6 3 4 4 3 4 7 8 8 10 12 11 11 12 11 11 11 11 11 12 13 14 14 14 15 16 15 14 13 15 19 22 20 18 19 21 19 16 14 13 15 17 15 12
3 1 1 4 9 10 10 10 9 8 6 6 8 9 9 9 11 12 8 4 4 5 8 14 16 10 8 10 7 7 7 6 8 9 9 9 8 6 5 7 12 13 10 8 7 6 7 6 4 5 6 7 8 9 8 7 8 10 10 12 15 16 17 17 15 15 16 14 12 12 12 12 12 12 14 19 24 23 19 17 15 15 16 16 16 18 15 10
Wind_Direction
239 239 239 240 241 239 238 241 243 244 242 238 237 238 237 236 239 241 240 241 243 242 241 247 249 245 243 242 238 235 238 235 231 220 219 229 223 222 224 216 226 230 231 224 208 214 211 217 220 205 223 222 219 219 172 216 228 236 238 240 245 236 246 256 235 233 299 342 113 158 185 214 189 161 177 157 228 222 174 196 196 188 220 229 107 101 121 143
239 238 238 238 239 239 237 237 241 243 242 240 238 238 237 235 236 239 239 239 241 242 239 241 246 245 241 243 239 234 237 233 230 230 229 233 230 225 225 224 232 231 223 218 209 209 211 214 208 198 217 217 195 185 176 189 201 230 241 241 243 244 285 42 334 342 342 344 64 150 203 233 238 137 165 205 219 203 212 206 196 212 216 204 168 150 147 157
240 238 237 237 238 239 237 235 238 240 240 240 240 239 236 233 234 237 239 238 238 242 239 238 242 244 242 243 245 245 248 238 232 236 234 234 233 227 226 227 232 226 214 216 218 215 221 223 209 201 215 225 209 196 206 185 187 228 238 245 246 256 290 64 0 8 25 358 1 109 199 243 266 80 159 223 237 208 225 220 198 212 211 204 188 175 169 174
240 239 238 237 237 237 237 235 235 237 239 238 240 240 236 232 231 234 238 237 236 240 238 235 238 242 243 243 243 248 255 247 236 232 234 236 233 228 226 224 226 222 213 219 234 229 230 231 216 209 219 230 216 208 223 188 181 225 227 244 254 289 277 218 126 51 42 4 328 353 331 254 240 199 203 234 248 225 232 230 211 217 209 195 183 178 180 185
238 239 238 236 236 236 236 236 234 235 236 236 239 241 236 232 230 230 234 236 235 237 236 234 237 240 241 240 234 228 234 247 257 227 228 233 232 224 220 221 221 222 216 219 234 234 227 223 213 214 223 231 217 209 229 206 198 236 233 247 260 294 277 211 85 62 51 15 289 269 261 278 228 228 236 237 243 238 309 266 227 234 222 165 167 175 183 190
236 237 237 236 236 235 235 235 234 235 234 235 237 240 237 233 230 227 230 233 233 235 235 234 236 237 237 237 228 211 211 238 26 42 213 220 223 217 215 218 218 218 215 215 221 221 218 214 209 215 216 228 223 211 231 212 191 234 234 241 251 259 262 0 74 79 53 248 253 268 304 329 272 254 240 231 243 263 39 25 21 45 61 121 159 172 185 195
235 235 236 237 235 234 235 234 234 233 233 232 233 238 237 235 231 227 228 230 231 235 234 233 233 234 230 225 222 206 218 236 252 314 289 213 213 212 212 213 211 209 208 211 213 212 212 210 209 213 211 224 225 218 233 214 190 230 240 240 241 242 248 253 91 125 199 250 265 308 317 278 255 262 251 235 248 256 279 66 48 60 84 123 165 176 192 202
235 234 235 236 235 233 233 233 232 232 232 229 229 234 235 236 232 227 228 228 229 231 234 232 228 229 223 211 212 228 238 233 239 261 268 251 214 209 205 202 202 200 203 209 209 207 208 210 209 206 215 224 224 222 225 212 207 226 239 246 234 228 241 226 175 204 225 239 253 260 263 258 254 293 284 258 259 258 239 185 152 125 147 186 196 196 203 209
234 234 233 234 234 232 232 232 231 230 231 228 227 230 233 235 232 227 227 227 226 227 231 231 226 228 224 213 217 247 246 225 237 252 255 261 219 204 199 192 193 193 201 209 208 208 204 208 211 210 226 230 226 228 213 207 222 219 228 240 230 229 231 208 213 222 225 231 228 238 253 255 234 341 273 253 255 258 234 205 212 222 236 237 232 222 215 215
233 233 232 232 232 232 232 231 230 229 230 228 225 227 231 233 233 227 224 225 224 225 228 228 227 222 217 212 218 240 248 191 227 241 245 247 203 198 203 196 192 192 199 204 205 210 207 211 214 215 243 237 224 231 217 214 238 216 222 234 235 238 220 200 227 224 220 232 229 237 253 253 175 187 255 240 243 249 227 224 225 228 243 245 243 236 224 222
231 231 232 230 230 230 230 231 231 229 228 227 225 226 229 231 232 228 224 224 223 223 225 224 223 217 210 210 221 233 134 138 194 217 227 219 184 194 207 203 197 196 200 202 205 208 209 215 209 201 239 226 205 223 226 223 246 240 223 228 226 232 223 210 226 223 219 226 220 237 261 255 202 213 246 241 227 217 223 238 225 220 240 246 246 240 225 225
232 230 230 229 228 228 228 230 230 229 227 226 226 226 227 229 231 228 224 223 222 222 222 219 218 214 210 214 226 231 139 147 165 184 205 197 185 192 205 211 205 203 203 199 202 206 206 200 185 194 194 211 193 199 225 210 224 233 217 226 223 228 232 220 218 215 218 220 196 224 268 251 232 232 238 234 228 217 226 242 233 228 235 240 244 242 229 223
231 230 229 227 226 227 227 227 228 229 226 224 225 225 226 227 228 227 225 223 221 220 218 213 210 207 207 222 228 218 161 152 160 168 186 188 190 191 199 214 208 207 213 209 200 197 201 188 188 202 37 259 204 137 226 189 204 219 211 236 234 230 234 220 217 211 214 210 168 200 263 248 238 239 232 220 223 228 234 242 245 245 244 241 242 240 236 224
229 229 229 227 226 226 226 225 226 228 226 225 224 224 225 225 226 226 226 224 220 219 217 210 204 200 206 227 225 206 185 170 161 158 172 180 186 188 198 214 211 204 212 216 195 169 178 160 124 132 28 312 237 107 188 177 193 213 215 235 234 237 241 213 200 195 203 193 169 212 257 259 256 254 240 209 212 230 238 242 245 248 250 248 245 239 237 229
229 228 227 227 226 225 225 224 224 225 226 226 224 224 225 224 224 224 226 224 220 217 215 211 203 195 216 237 222 192 185 180 164 160 173 179 175 173 196 211 219 220 212 107 166 135 134 138 116 125 129 356 312 202 198 185 195 208 216 226 223 233 241 204 187 191 200 185 180 213 248 261 260 262 261 214 202 225 239 244 247 249 252 254 254 247 240 238
230 229 227 226 225 224 224 224 223 223 224 224 225 225 224 226 225 223 226 223 219 213 206 207 199 191 235 227 184 173 178 179 175 170 175 181 178 162 161 167 173 205 199 103 125 138 130 133 123 176 146 98 241 205 196 203 208 205 216 227 219 222 225 199 181 197 211 203 193 212 240 262 257 256 256 203 207 232 243 250 252 254 257 259 262 261 253 247
226 228 228 226 224 223 223 223 222 221 222 222 224 226 224 227 225 222 225 221 217 208 201 206 189 186 252 193 156 170 179 180 178 179 180 182 188 171 149 142 132 140 139 114 110 131 137 137 135 170 160 180 199 195 195 203 209 204 213 229 227 228 229 211 184 192 212 218 210 215 234 251 254 257 203 167 201 236 248 251 255 259 261 262 263 264 257 249
224 225 227 227 224 222 221 222 221 219 220 219 221 225 224 226 224 221 221 213 207 203 205 212 182 175 232 199 180 182 180 178 176 181 181 175 183 172 148 124 130 124 117 109 111 126 164 168 170 179 173 191 197 201 206 202 204 204 205 219 230 235 230 221 215 191 194 208 222 223 229 241 252 258 249 224 208 226 251 256 259 260 260 262 261 259 255 251
225 223 224 227 225 222 221 221 220 218 217 217 219 222 224 226 224 218 212 198 189 199 200 187 176 187 229 188 193 190 180 175 170 173 168 160 165 159 137 121 120 124 118 121 159 159 176 173 181 193 185 195 201 204 214 212 210 216 211 206 219 226 225 227 226 186 189 207 223 230 237 241 249 256 255 252 238 235 251 257 258 257 256 258 258 255 253 252
226 222 220 223 224 222 222 220 218 215 214 213 210 212 217 215 211 212 205 191 198 212 195 165 176 207 239 186 184 180 174 170 164 165 163 158 150 136 125 126 101 102 122 133 161 157 177 183 192 205 198 198 199 205 219 223 227 239 221 204 219 226 229 231 215 152 190 224 225 230 243 245 252 259 258 260 257 252 254 255 255 254 254 254 255 256 255 255
225 223 218 219 221 219 220 219 215 213 212 210 204 202 211 195 187 178 175 198 217 212 244 190 179 193 215 180 170 161 155 168 162 162 166 161 150 145 153 156 145 155 141 122 127 117 195 197 203 212 211 203 198 207 220 229 238 246 227 213 223 225 233 237 205 139 166 242 242 240 250 250 253 261 262 261 259 257 256 257 255 255 258 258 258 258 257 259
223 223 218 217 218 217 217 217 216 212 211 211 208 209 223 206 201 173 161 198 219 203 243 204 180 178 166 165 164 152 142 169 168 165 166 163 164 170 170 167 176 175 152 133 123 289 260 230 224 230 228 214 207 211 215 223 228 235 236 227 227 226 232 234 169 142 171 237 257 258 262 259 256 260 263 259 256 255 252 254 254 255 261 261 259 260 260 264
223 221 219 217 215 215 216 215 214 212 210 212 212 212 218 211 209 198 164 194 216 191 198 193 175 168 174 177 166 161 167 174 171 171 168 169 179 185 176 178 192 181 162 168 178 200 247 258 235 335 283 225 215 215 213 216 218 225 231 223 227 228 231 233 181 177 202 230 261 275 276 266 262 263 263 258 253 252 249 249 251 251 257 259 259 261 262 264
223 219 219 217 214 213 213 212 211 211 210 213 217 216 215 210 207 201 169 179 233 186 187 186 176 180 178 164 170 180 189 181 175 173 171 175 179 183 189 191 197 192 179 186 183 190 215 272 98 48 352 244 217 210 208 213 212 218 226 226 235 232 234 246 216 185 221 237 246 268 280 265 251 251 256 255 245 241 239 241 244 246 249 252 255 258 257 257
223 220 218 216 214 211 209 210 211 210 208 212 220 218 214 212 205 196 180 282 247 190 184 178 174 193 172 146 179 186 189 189 191 173 171 183 182 179 196 197 202 204 195 192 185 192 209 178 98 105 30 348 226 204 199 205 212 218 225 231 244 249 242 234 221 224 253 252 221 218 267 269 243 243 250 252 245 239 234 231 236 244 249 249 252 254 251 249
223 220 217 214 213 208 205 210 212 209 206 214 220 213 210 216 202 185 178 295 228 188 180 168 153 182 176 172 172 150 167 199 208 165 169 186 190 182 199 194 205 213 198 190 190 198 189 163 142 139 91 30 269 227 205 205 225 229 229 229 235 250 256 237 228 230 254 270 215 177 257 281 265 252 254 260 259 252 236 224 230 239 245 245 248 253 254 252
222 219 216 214 211 203 199 207 206 203 204 216 213 203 207 213 191 163 164 268 218 163 164 163 154 173 174 172 156 142 163 156 113 174 171 183 195 207 222 195 193 214 196 176 198 189 151 160 165 159 147 137 239 246 222 212 222 228 0 318 237 238 247 240 237 237 247 271 250 189 237 277 274 258 257 262 264 261 243 227 230 233 240 248 251 256 259 258
221 218 214 213 209 203 202 199 188 197 212 210 197 197 206 205 178 147 172 239 191 130 147 151 138 159 160 159 163 169 156 141 153 184 161 165 184 180 227 198 193 203 188 177 201 175 152 170 175 166 160 168 191 202 197 214 219 226 13 352 298 256 252 242 238 245 249 261 256 225 218 258 269 259 249 247 248 253 248 239 242 241 243 252 254 256 259 261
220 215 212 211 208 206 206 202 191 204 210 198 186 196 198 189 173 144 233 230 133 117 155 145 143 150 148 148 162 188 174 160 171 153 136 154 179 172 219 202 199 197 185 192 206 163 149 176 172 168 168 181 185 162 132 147 160 55 28 5 355 333 284 253 236 240 247 247 247 236 221 246 270 262 235 232 233 245 249 244 245 239 238 248 252 256 262 267
218 213 210 208 207 207 205 205 210 208 195 185 188 189 179 172 176 196 221 209 81 162 177 147 156 150 142 138 140 174 169 160 138 122 128 145 146 139 241 219 211 196 186 198 199 114 100 141 155 171 182 181 172 143 134 137 137 118 72 37 354 347 332 299 248 225 236 241 239 233 223 236 265 264 229 235 233 239 246 233 220 221 232 246 255 260 263 270
215 211 206 205 206 203 198 204 211 203 188 185 181 173 168 167 196 210 213 187 75 180 171 149 153 150 149 145 141 171 164 146 143 140 129 126 139 156 162 151 198 184 180 178 146 114 128 144 156 160 135 142 136 121 103 105 134 143 95 82 349 330 320 334 231 209 220 234 236 230 222 229 249 253 224 246 236 223 232 227 237 245 242 251 260 263 268 275
213 208 203 204 205 199 197 204 202 197 187 181 172 162 170 196 209 202 173 130 160 194 170 152 150 152 153 147 142 167 162 152 159 161 155 150 155 164 176 177 164 173 184 163 148 140 151 170 171 143 130 150 143 137 143 146 170 177 151 156 171 261 241 216 201 207 223 242 255 214 210 220 247 254 250 251 245 237 241 244 260 267 263 266 266 266 275 280
210 206 202 204 202 199 201 198 195 191 178 172 169 165 191 208 208 164 128 166 168 142 160 156 153 155 154 149 158 170 165 162 167 168 165 159 163 174 188 186 169 168 172 162 161 154 159 187 178 159 156 170 161 158 178 194 194 193 188 185 183 204 241 234 216 214 227 245 265 220 203 210 251 263 251 241 239 242 245 248 259 266 264 265 267 273 281 279
208 203 201 202 201 202 199 191 191 187 171 165 169 190 201 210 189 123 147 197 113 123 164 161 155 158 158 158 166 167 166 171 168 165 161 158 167 174 185 197 194 28 111 160 168 163 173 192 178 176 172 173 183 190 188 173 186 197 198 194 198 204 224 244 229 234 261 255 237 214 201 193 214 254 279 236 235 237 242 247 250 254 256 259 266 272 273 274
204 201 199 199 201 201 194 187 188 183 172 166 176 205 205 196 142 145 157 167 143 146 164 162 156 157 160 160 163 163 162 171 168 166 164 168 175 171 167 182 194 194 147 163 169 173 187 195 171 179 176 172 187 198 177 133 169 187 164 192 224 218 199 297 331 151 330 319 245 209 209 210 232 268 347 111 131 208 232 237 236 241 246 251 258 259 260 270
196 196 198 197 197 195 191 186 182 177 174 176 197 209 211 155 145 178 159 153 155 146 155 164 162 157 156 153 159 161 88 161 167 167 168 175 181 177 169 167 181 194 179 166 149 169 188 183 166 172 178 178 185 188 179 175 179 163 163 193 214 125 123 199 269 136 123 274 260 235 239 245 267 278 260 238 225 211 219 231 240 246 242 243 253 254 257 264
188 190 193 196 193 191 190 185 179 177 175 186 210 211 196 143 173 168 154 152 150 149 156 165 164 158 152 147 155 158 151 158 166 165 173 182 186 178 175 170 178 197 196 172 148 171 182 162 158 170 179 181 182 181 185 197 149 160 185 173 106 56 74 154 246 221 200 247 263 251 250 247 250 269 264 235 228 225 227 236 247 254 242 233 239 241 248 253
180 180 187 198 191 186 185 180 176 177 175 190 209 214 310 182 173 161 160 152 149 155 164 165 163 160 153 152 158 161 161 163 169 172 175 184 189 175 175 174 176 193 207 196 186 185 183 140 156 182 184 170 169 177 188 201 99 104 183 152 132 149 176 161 204 230 225 244 260 230 239 245 239 248 274 257 235 235 237 237 242 247 234 222 230 241 248 252
164 170 196 193 183 179 180 177 172 173 184 202 204 205 201 142 155 176 169 156 152 159 166 173 171 164 164 165 164 167 172 173 173 178 182 185 185 177 178 176 176 186 196 199 193 184 187 176 168 192 183 158 161 184 195 194 176 129 180 169 176 258 180 173 191 197 217 235 256 247 236 234 235 246 256 259 261 261 257 250 244 245 242 243 259 264 264 272
150 168 193 178 176 176 175 174 171 172 192 206 193 178 157 129 149 195 183 164 155 157 169 173 172 170 171 169 165 171 178 176 174 181 187 182 177 179 183 179 176 183 188 191 188 172 182 203 183 176 170 158 168 194 196 193 185 181 189 187 192 198 148 211 201 175 205 222 229 252 253 244 237 247 254 254 257 260 260 260 252 251 266 280 280 281 291 300
153 178 180 170 173 171 165 165 185 181 177 183 166 191 170 142 147 172 180 165 128 11 210 170 170 174 171 168 170 174 178 178 179 182 181 181 183 186 187 183 175 177 182 190 192 180 179 198 173 155 168 179 191 198 202 203 194 191 198 194 193 188 172 204 212 192 198 217 212 229 258 258 243 248 267 263 261 266 268 264 259 266 287 293 289 285 288 299
162 181 165 165 166 163 157 160 224 168 176 174 149 154 153 143 150 160 159 140 84 20 19 138 159 166 170 174 172 171 173 176 180 182 182 186 192 195 188 187 180 174 177 181 180 176 178 189 175 161 178 187 167 157 188 225 209 209 215 208 204 197 188 207 214 190 187 211 225 244 266 268 253 246 264 269 272 281 281 272 271 285 296 294 291 288 290 310
169 161 153 162 163 160 160 183 154 148 181 162 138 140 142 143 150 151 148 146 145 121 91 86 149 158 171 178 172 172 172 170 179 187 188 178 188 212 185 184 182 178 180 177 167 160 159 188 184 168 167 158 96 98 51 15 243 221 222 218 214 205 202 214 226 152 196 204 211 223 244 263 262 238 253 263 268 275 282 283 280 287 293 289 286 286 295 316
155 115 144 161 163 163 170 188 151 137 146 135 126 130 122 118 146 153 153 151 153 154 141 143 161 158 162 167 173 177 169 155 181 189 185 159 167 282 182 179 183 180 180 180 173 177 186 187 185 176 175 174 163 186 182 40 232 224 216 216 218 213 211 218 225 301 241 207 208 219 231 254 263 227 244 257 261 271 278 276 270 273 279 278 272 270 288 310
126 95 101 154 161 167 189 197 148 135 142 142 136 135 129 115 151 160 145 131 108 142 141 144 143 134 143 149 161 175 164 125 172 170 145 134 114 309 181 176 182 181 173 161 161 175 200 191 186 190 194 194 198 206 204 198 202 214 218 218 219 218 216 216 214 221 226 207 207 221 237 264 279 281 270 265 267 279 283 278 265 259 261 267 269 271 281 294
141 150 110 94 142 167 209 198 156 143 147 144 137 143 141 135 132 109 116 102 50 118 111 118 129 122 138 148 148 165 153 87 111 142 141 145 126 336 183 174 176 165 129 131 151 161 191 197 199 209 214 212 211 202 183 186 190 194 210 217 220 222 219 219 222 220 227 228 226 232 245 272 282 281 277 275 276 283 287 287 281 278 276 272 268 270 273 280
158 162 153 118 91 133 126 170 165 153 155 148 141 155 149 138 138 122 52 29 158 131 90 84 139 141 154 157 154 161 142 99 97 142 157 151 113 75 161 170 166 143 117 136 159 153 157 199 205 213 225 230 231 177 147 181 206 199 203 211 216 220 218 219 227 228 239 246 241 237 238 259 271 271 274 280 285 288 288 288 289 292 294 292 286 289 293 296
160 131 175 132 126 144 149 166 163 150 152 148 140 151 151 145 147 148 91 85 154 147 120 113 166 165 161 160 157 151 137 114 126 157 159 146 125 121 121 131 149 142 146 161 165 153 174 206 203 205 223 234 237 193 133 165 218 214 212 217 218 220 219 221 229 232 237 242 247 252 246 250 262 266 271 279 287 291 289 289 290 287 289 291 288 287 289 290
117 106 317 317 129 145 143 145 147 138 133 133 141 156 158 154 153 147 120 136 158 166 150 154 176 174 165 164 159 152 157 158 164 170 155 134 139 144 141 135 128 184 185 169 151 123 202 205 205 209 223 233 238 233 196 193 223 226 231 232 228 231 232 234 237 235 235 238 242 247 247 246 256 268 276 279 282 287 289 287 283 279 280 282 278 278 279 280
125 122 154 117 111 133 138 140 143 133 126 138 150 161 163 154 147 132 110 146 166 173 167 162 169 171 166 167 164 166 174 170 162 164 149 135 147 159 157 155 149 164 188 172 144 341 231 202 194 206 228 238 241 244 241 236 237 239 242 242 245 251 250 248 247 240 237 240 241 243 249 252 254 264 273 276 277 281 282 282 282 285 288 283 280 281 276 270
77 44 163 130 124 136 143 147 146 137 142 159 157 161 166 158 144 128 100 20 143 163 173 162 156 157 160 166 168 163 163 153 144 153 152 146 155 163 156 152 149 151 171 177 159 168 208 199 148 172 228 239 229 233 240 241 244 246 247 244 243 244 242 238 236 235 237 244 247 245 248 253 251 255 267 277 281 275 270 274 282 289 290 285 286 287 281 273
95 59 321 119 130 142 147 148 151 148 153 162 157 156 152 145 139 128 110 20 36 121 155 147 140 140 149 157 154 133 124 106 113 135 151 150 143 127 122 149 158 159 167 171 164 168 183 190 165 167 214 240 229 225 228 227 238 242 233 230 230 231 234 236 236 238 240 244 247 244 242 247 254 261 269 277 280 278 275 275 279 286 289 291 290 287 290 300
Height
766 767 769 770 772 773 774 775 777 778 779 779 781 782 784 785 786 788 790 792 794 796 799 800 801 803 805 807 808 810 810 809 809 808 805 803 804 806 806 808 809 811 813 813 813 813 813 813 813 813 814 813 813 812 813 812 812 816 821 826 824 818 813 806 805 807 807 807 808 810 809 810 813 813 811 812 814 813 815 815 813 813 813 813 815 816 818 820
764 765 766 768 769 771 772 774 775 776 777 778 779 780 782 784 785 787 789 790 792 795 797 798 800 802 804 806 807 809 810 808 807 804 799 800 803 804 806 807 809 810 812 813 812 811 811 811 811 812 814 814 814 813 815 813 813 819 820 823 820 810 806 802 803 804 806 809 808 809 809 810 811 811 811 815 816 813 817 815 813 815 813 813 814 816 817 819
761 763 764 766 767 768 770 771 773 774 775 776 777 779 780 782 784 785 787 789 791 793 795 797 799 801 803 805 807 809 809 808 804 797 795 799 801 802 805 806 808 809 811 812 811 810 810 809 810 811 813 815 814 813 816 814 814 816 817 823 815 805 804 803 804 806 807 809 809 810 810 812 810 809 812 816 814 813 815 813 813 815 813 811 812 814 816 817
758 760 762 763 765 766 768 769 771 773 773 775 776 777 778 780 782 784 786 787 789 792 794 796 798 800 802 804 807 808 810 809 797 789 794 797 797 801 803 805 808 809 810 811 811 810 810 809 809 810 814 816 814 814 816 813 814 813 815 820 809 804 809 805 805 807 808 810 811 812 813 814 810 809 813 814 816 815 811 806 806 809 807 807 809 812 815 816
756 757 759 761 763 764 765 767 769 770 772 772 774 775 776 778 780 782 784 786 788 790 793 795 797 800 802 804 807 808 813 810 792 785 792 793 794 799 801 804 807 809 810 811 811 810 810 809 809 810 814 816 815 817 816 809 810 813 813 813 806 807 812 807 806 809 809 811 812 813 814 813 809 812 813 814 817 812 806 802 800 802 802 803 807 810 812 814
753 755 756 758 760 762 763 765 766 768 770 770 772 773 775 776 778 781 783 785 787 789 792 794 796 799 801 804 806 807 811 804 789 787 790 789 793 795 799 802 805 808 809 810 810 810 810 808 810 813 813 815 814 816 814 806 809 816 812 808 806 808 811 808 809 811 810 811 812 813 812 811 812 814 809 811 813 806 802 802 800 802 802 804 806 809 811 812
751 752 754 755 757 759 761 762 764 766 768 769 770 771 773 775 777 779 781 783 785 788 791 793 796 798 800 803 804 806 805 794 786 789 790 791 794 794 798 800 803 807 808 809 809 808 809 809 810 811 813 814 812 813 810 805 809 815 812 806 806 808 809 809 810 812 812 812 811 811 812 813 815 813 809 810 809 802 802 802 803 804 805 806 807 809 810 811
747 749 751 753 754 756 758 760 761 763 765 767 768 770 772 773 775 777 779 782 784 787 789 792 795 797 799 801 802 804 799 789 786 789 791 794 796 797 799 800 803 805 806 807 806 806 807 809 809 808 812 812 808 810 808 809 813 814 812 806 806 809 809 808 811 813 812 812 811 812 814 812 811 812 812 810 806 801 801 802 804 805 806 807 807 808 809 810
744 746 748 750 752 754 756 757 759 761 763 765 766 768 770 772 773 775 778 780 783 786 788 791 794 796 799 799 801 802 790 783 787 789 790 794 797 799 799 799 801 803 804 805 804 805 805 806 806 804 809 808 806 808 807 814 814 809 809 806 806 810 808 809 812 812 812 811 811 813 814 810 807 812 812 806 802 800 799 802 804 805 807 807 806 807 807 808
741 743 745 747 749 751 753 755 757 759 761 763 764 766 768 770 772 773 776 779 781 784 787 790 792 795 797 797 801 799 784 781 787 788 790 793 795 798 799 799 800 800 801 802 802 802 802 803 802 802 805 804 805 807 806 811 809 803 806 804 805 809 807 810 811 810 812 811 811 814 813 808 807 813 812 802 798 798 800 803 803 804 806 804 804 804 804 806
738 740 742 744 746 749 751 753 754 756 758 760 762 764 766 768 770 772 774 777 779 783 785 788 791 793 795 796 798 792 781 783 786 786 790 792 794 797 798 799 799 799 799 800 800 800 801 801 800 803 807 805 806 809 806 806 805 803 805 806 808 809 809 810 811 811 812 812 810 812 812 808 808 812 809 801 797 799 801 802 801 804 804 802 802 801 802 803
735 737 739 741 744 746 748 750 752 754 756 758 760 762 765 767 768 770 773 775 778 781 783 786 789 792 794 794 791 784 781 783 784 786 789 789 792 794 796 799 799 799 798 797 798 799 801 801 801 805 808 805 807 812 808 803 805 806 807 812 811 810 811 810 810 810 812 813 808 811 818 812 808 807 803 799 797 798 800 801 800 801 801 801 800 800 800 801
731 734 736 739 741 743 746 748 750 752 754 756 758 760 763 765 767 769 771 774 776 779 782 785 787 790 793 790 783 781 782 782 783 786 787 789 790 792 795 798 798 799 798 797 798 798 800 802 803 805 807 807 807 810 807 802 807 810 810 813 812 813 813 806 806 808 811 812 806 815 825 813 800 796 793 793 794 796 799 799 799 799 798 798 798 798 798 798
728 731 733 736 738 740 743 745 747 749 752 754 756 759 761 763 765 767 769 772 775 778 781 784 786 789 790 785 780 781 781 781 783 785 788 790 790 792 795 796 797 798 797 798 798 798 799 801 804 807 810 811 808 807 809 808 810 812 813 814 814 818 811 798 801 807 812 811 805 816 827 812 797 791 786 786 791 795 797 797 797 796 795 795 794 795 796 795
725 727 730 733 735 738 740 743 745 747 750 752 755 757 759 762 764 766 768 770 773 776 780 784 784 787 788 783 778 779 781 782 783 784 787 790 791 792 794 797 798 797 797 798 798 799 800 802 807 810 813 815 813 813 813 813 811 811 818 820 817 817 809 800 800 804 810 810 806 816 824 811 798 791 784 784 789 793 796 795 794 794 793 792 791 791 793 793
722 724 727 730 732 735 737 740 743 746 748 750 753 755 758 760 762 765 767 769 772 775 779 781 779 782 785 779 775 777 778 780 781 784 786 789 791 792 794 797 798 798 798 799 800 801 801 804 809 811 813 818 821 820 819 820 818 811 814 817 814 814 812 808 806 802 804 807 808 814 817 808 796 789 785 786 790 793 795 794 793 793 792 791 791 790 790 792
718 721 724 727 730 732 735 738 741 744 746 749 751 754 756 759 761 764 766 768 770 773 776 775 775 781 781 774 773 774 775 776 779 782 784 788 790 791 794 796 797 797 798 801 803 804 803 806 811 812 814 818 820 822 827 830 824 812 811 812 809 810 811 811 809 804 802 805 809 810 811 807 795 789 789 789 791 794 795 795 793 792 791 790 790 790 790 791
715 718 721 725 727 729 732 735 738 742 744 747 750 752 755 758 761 763 764 766 769 772 774 773 776 780 775 772 772 769 769 773 775 778 783 787 789 790 793 795 796 796 799 804 806 807 809 809 811 814 819 822 819 819 823 820 812 809 811 814 813 813 813 811 808 803 801 806 808 808 809 806 796 790 789 788 790 793 794 793 792 791 791 790 789 789 789 789
712 714 718 722 724 727 730 733 736 739 743 746 749 752 756 758 760 761 760 762 763 763 763 763 767 766 760 761 764 763 765 768 772 777 781 785 788 791 793 795 797 797 801 807 808 809 811 813 814 815 817 817 811 808 808 801 799 801 804 811 813 812 811 805 801 798 799 806 809 806 805 802 797 792 789 787 786 789 791 790 790 789 788 788 788 787 786 787
709 711 715 718 721 724 727 730 734 737 740 744 747 751 753 752 754 754 755 756 754 751 751 751 753 755 753 753 756 760 764 767 770 774 778 782 785 790 794 796 799 800 802 807 809 806 807 814 815 810 805 803 802 801 798 794 796 799 802 808 807 807 808 798 797 801 800 806 806 801 801 799 796 791 787 787 785 786 788 788 788 787 786 786 785 785 784 783
706 709 711 715 719 722 724 727 731 734 738 741 744 745 742 740 743 745 749 754 752 749 751 747 747 751 753 753 755 759 765 769 770 773 777 779 782 789 794 797 802 805 804 805 807 805 806 811 808 801 795 795 799 798 796 797 801 802 801 803 804 806 805 793 794 802 802 809 806 798 799 797 794 792 786 786 787 786 786 786 785 783 783 782 781 781 780 778
704 706 709 712 716 719 722 725 728 732 736 738 740 739 734 733 736 737 742 750 750 748 752 750 748 751 753 754 756 757 764 770 772 772 774 777 780 785 791 796 799 802 802 804 809 812 814 811 804 798 793 792 795 793 794 799 805 807 801 801 806 805 802 797 798 802 804 812 808 799 800 796 791 789 785 784 785 784 782 780 780 779 780 779 778 777 777 776
701 703 706 709 712 716 719 722 726 730 733 734 734 733 732 734 737 738 740 746 747 747 750 750 747 750 753 755 756 757 760 765 769 769 770 774 778 780 785 791 793 795 800 803 808 818 820 812 803 801 797 794 795 793 796 800 804 808 803 803 807 803 804 806 803 802 804 808 806 803 804 799 792 789 783 781 780 779 778 776 774 775 776 775 774 774 774 774
698 700 704 706 709 713 716 721 725 727 728 729 729 729 731 735 738 739 741 747 748 745 746 746 745 746 748 752 753 753 756 757 759 762 765 768 772 776 779 783 787 792 797 797 802 813 815 807 803 804 802 799 800 799 801 804 808 808 803 803 805 801 802 803 802 805 807 806 805 808 811 800 791 790 783 775 774 774 773 773 772 771 771 771 770 770 771 770
694 698 700 703 707 709 714 720 720 720 723 726 725 726 733 737 737 738 743 750 750 746 745 743 744 744 745 750 751 751 755 755 753 755 760 762 765 771 774 775 780 786 789 792 798 806 808 805 805 806 806 805 806 805 801 805 811 811 805 802 802 801 799 800 805 812 816 812 802 809 819 801 781 781 777 770 770 769 767 768 770 769 767 768 768 767 767 766
691 694 697 701 704 707 714 716 714 717 722 722 720 726 733 736 737 737 744 753 747 740 741 737 739 742 743 748 751 754 760 758 754 753 757 762 761 765 771 772 775 778 779 787 795 799 800 802 805 807 809 809 812 809 800 801 812 814 805 799 801 802 801 802 809 817 822 815 800 804 819 806 785 778 772 767 768 766 765 766 768 768 766 765 765 763 762 762
688 691 694 697 700 706 710 709 711 717 718 715 717 725 730 734 738 736 744 753 737 726 732 733 733 735 737 744 747 753 757 754 757 757 755 761 762 765 770 770 773 774 772 784 795 793 794 802 804 803 807 813 817 816 805 802 810 812 806 802 802 803 804 804 810 816 815 810 804 803 812 813 798 783 772 768 771 768 766 768 767 766 765 762 761 759 758 757
684 687 691 694 698 702 703 704 709 711 709 710 716 723 727 733 737 735 742 740 717 711 723 728 731 731 734 742 744 747 747 744 753 757 754 758 762 767 770 767 768 771 770 781 791 788 788 796 798 798 806 813 815 814 810 807 812 816 815 813 810 808 806 805 812 816 811 815 818 805 806 816 802 781 773 771 773 772 766 766 765 762 762 760 758 756 753 753
681 684 687 691 696 698 700 704 706 704 705 712 717 720 726 734 736 737 739 723 703 708 714 718 730 733 734 743 747 748 746 741 748 754 757 760 761 764 767 764 763 767 772 776 780 785 787 788 789 794 803 808 808 809 810 812 817 818 818 819 819 817 812 810 816 820 820 827 825 805 803 813 798 777 774 774 774 772 765 761 759 758 759 757 754 754 751 750
677 680 684 689 693 694 698 702 701 703 708 713 716 719 726 733 732 730 726 709 703 712 709 711 725 729 733 745 751 749 745 744 748 754 760 762 762 764 764 763 762 768 776 778 779 786 787 785 787 792 797 799 803 808 810 812 818 819 820 823 826 826 823 822 821 822 829 830 818 803 799 807 801 779 771 770 766 765 761 757 757 756 757 755 752 752 750 749
673 676 681 686 687 689 694 696 697 702 708 710 714 721 726 729 725 717 707 699 706 714 708 709 717 721 730 741 746 745 743 746 749 754 762 764 765 767 767 769 771 775 782 786 789 791 789 791 791 791 793 795 803 812 812 814 818 820 823 827 832 833 830 831 829 827 831 822 805 797 795 804 805 781 767 763 755 756 758 756 756 755 754 752 750 749 748 747
670 673 677 681 683 687 689 689 693 700 704 706 713 719 721 721 713 703 700 703 709 710 706 706 708 715 728 736 740 740 739 743 747 750 757 761 764 764 764 766 769 776 783 787 793 795 793 792 790 792 794 793 802 814 818 819 820 822 825 830 838 839 833 830 828 824 821 811 796 790 793 802 797 772 762 761 755 754 756 754 755 754 752 751 748 747 746 746
666 670 674 678 680 684 685 688 694 698 701 705 711 717 716 708 696 689 700 710 707 703 704 702 701 709 721 733 739 737 735 740 743 744 750 756 761 762 762 760 761 768 774 778 786 792 796 794 791 795 797 793 797 809 817 818 817 819 819 825 834 836 833 827 819 817 814 805 794 788 793 803 792 766 754 753 752 752 751 751 752 751 751 749 746 746 746 746
663 667 670 674 677 679 683 689 693 696 700 704 709 713 707 694 688 691 704 712 707 703 701 697 699 707 715 725 730 729 733 739 740 742 750 757 761 764 766 765 764 765 768 776 781 783 790 793 792 793 792 792 794 797 804 807 810 813 810 816 823 821 822 821 816 819 815 802 794 792 799 803 788 764 748 744 746 746 746 748 748 747 747 746 745 746 747 746
661 664 667 671 674 677 682 686 689 694 700 703 707 707 692 680 686 695 699 706 707 705 701 696 699 708 715 721 723 722 730 736 737 742 749 753 754 758 763 765 766 765 767 776 779 776 782 783 780 782 781 785 791 792 796 803 810 812 810 817 821 811 812 819 822 824 823 817 807 798 798 789 768 753 746 746 746 745 745 746 745 745 744 744 746 746 746 746
659 662 665 667 669 673 678 682 688 692 697 701 703 697 683 677 687 691 689 696 700 700 703 702 701 706 714 721 725 728 731 733 736 742 748 750 749 751 756 758 761 762 762 768 772 774 779 777 773 779 780 781 786 788 791 798 806 810 813 817 813 805 810 821 825 824 829 830 813 796 793 784 769 757 746 745 748 747 747 746 743 743 743 744 746 746 746 745
655 659 662 663 665 671 676 680 686 690 695 701 697 689 683 683 689 688 682 685 690 691 698 701 699 703 711 720 725 730 732 732 736 741 745 748 747 746 749 752 756 758 755 758 764 764 767 773 773 775 780 780 780 785 791 794 799 807 812 810 807 809 814 820 826 824 827 827 810 796 794 787 784 771 745 739 746 745 744 743 740 740 741 743 745 744 744 742
652 657 661 661 664 670 675 680 686 690 696 699 692 688 690 688 689 688 681 680 683 688 695 698 695 696 705 715 720 724 727 730 736 739 741 744 742 738 742 748 753 757 753 753 759 756 756 774 781 773 775 780 780 788 798 798 798 803 803 800 804 814 818 822 825 820 820 821 809 799 794 786 782 769 749 745 746 743 742 740 739 740 739 740 741 741 741 739
651 658 660 659 663 670 673 678 685 690 695 693 685 686 691 690 690 687 680 678 681 686 693 695 692 693 698 703 708 714 717 721 728 732 733 736 735 730 732 738 745 750 750 748 752 751 750 766 780 776 773 780 785 791 797 799 800 802 802 800 801 806 811 813 813 811 813 815 808 801 794 784 770 756 750 749 743 740 741 737 737 738 736 737 738 738 738 738
650 655 656 656 661 667 672 679 685 687 690 687 682 684 688 689 692 687 679 678 681 685 688 688 690 693 695 696 700 706 709 712 719 723 724 726 728 728 726 729 737 741 743 743 744 747 749 755 770 779 778 783 788 787 784 785 793 799 802 804 803 804 807 808 806 806 809 810 809 805 796 777 755 742 742 742 737 736 736 734 735 735 735 736 736 736 737 738
648 653 653 653 659 665 671 679 683 683 684 684 685 688 685 683 687 687 682 681 684 686 685 684 688 691 692 695 698 702 706 711 715 719 723 723 725 728 724 722 729 734 739 745 743 745 752 754 765 780 784 784 783 777 773 774 780 787 791 793 795 798 803 808 806 804 805 803 799 799 794 771 745 736 735 734 733 733 732 733 734 734 735 736 736 736 737 737
646 650 650 651 658 664 670 678 681 681 682 681 683 685 681 677 680 683 683 685 688 688 686 686 689 691 693 693 695 698 703 709 712 715 719 719 718 721 720 719 724 728 734 744 744 742 745 749 761 776 780 779 777 775 776 775 774 778 781 781 785 792 797 801 799 797 801 800 792 793 794 768 739 734 735 732 732 732 731 734 735 735 736 735 735 735 735 737
644 646 648 651 656 662 669 676 679 680 681 679 679 681 680 677 677 680 683 687 690 689 689 691 691 693 694 693 695 698 701 706 710 710 713 717 719 719 718 718 723 727 732 740 744 744 745 748 757 770 776 779 781 779 781 782 781 783 783 779 780 785 789 789 789 792 796 797 793 797 798 770 738 733 735 731 732 733 732 735 736 737 735 734 735 735 735 737
642 645 649 652 656 661 666 669 670 677 682 682 680 680 680 678 678 679 681 685 687 687 690 692 691 692 693 693 695 697 700 708 712 711 712 719 726 725 719 719 723 727 731 736 739 743 747 748 753 765 777 785 787 786 787 790 788 785 781 777 775 777 782 786 790 795 798 793 789 794 793 767 739 733 735 732 733 734 735 736 736 737 736 734 734 734 735 736
643 648 651 654 657 660 663 663 663 671 678 679 680 680 679 682 683 679 679 685 686 685 690 693 691 691 693 695 697 697 700 708 712 713 716 722 731 732 723 722 725 726 729 732 732 737 744 746 748 757 768 776 779 778 776 776 778 778 775 774 773 774 779 785 790 796 796 788 785 789 785 764 743 737 737 735 736 736 735 735 735 735 735 734 733 734 735 735
639 646 653 660 663 663 665 664 660 665 670 673 679 680 678 683 686 681 681 688 689 686 691 693 690 693 696 698 702 705 707 712 714 716 719 724 734 737 729 725 726 727 731 732 731 738 745 745 744 748 752 754 756 756 754 756 764 772 772 772 772 771 773 781 787 790 787 782 782 782 778 770 755 744 739 736 737 739 735 734 735 734 734 733 733 734 734 734
635 643 651 655 660 664 667 666 662 661 661 663 670 676 677 680 683 685 686 688 687 686 692 694 691 694 700 701 704 710 713 717 720 719 720 726 734 739 733 728 728 731 734 734 734 740 749 750 747 747 747 743 741 746 750 752 757 762 765 768 769 768 771 780 785 782 780 784 784 774 772 775 762 745 740 738 737 740 737 734 735 735 734 733 732 732 732 733
636 644 647 643 648 657 661 663 662 659 658 658 663 671 677 678 680 685 689 689 687 684 690 698 696 693 697 700 703 711 718 724 726 721 721 728 735 738 737 734 734 736 736 736 737 740 748 751 747 748 751 746 742 747 752 754 754 756 758 762 764 765 770 777 780 779 779 785 784 773 772 775 761 744 741 740 737 738 737 734 734 735 735 735 733 732 731 731
637 644 647 641 642 649 653 656 658 659 661 662 665 670 673 676 678 681 683 686 688 684 684 695 698 694 695 697 700 710 716 720 724 722 722 728 731 732 738 740 740 739 736 738 742 743 747 748 745 748 753 751 748 749 752 756 758 758 757 758 759 761 765 770 773 774 775 778 776 772 771 769 758 745 739 737 736 736 734 731 730 731 734 735 733 732 730 729
635 640 642 640 644 648 651 654 656 659 663 663 666 670 669 671 676 679 680 682 685 683 682 688 693 694 696 697 698 704 706 706 712 717 718 725 728 728 733 736 738 741 740 741 746 748 747 746 743 747 753 754 751 750 752 755 759 761 761 759 760 762 764 767 767 766 767 768 766 765 767 763 754 745 737 731 732 735 733 729 726 726 730 731 729 728 727 726
633 636 634 635 644 649 651 653 653 657 664 664 666 669 668 670 672 675 681 683 679 679 679 681 688 694 698 699 699 702 702 701 706 711 712 717 721 723 726 729 733 740 743 743 746 749 749 748 747 752 758 756 752 753 755 756 758 763 765 763 764 765 764 763 761 758 759 761 761 762 763 757 747 742 737 730 728 731 731 727 724 724 724 725 724 722 721 723
633 636 632 631 642 649 649 651 653 656 660 660 662 665 666 670 670 669 679 685 680 677 678 680 687 695 699 703 703 703 703 704 706 710 711 713 715 719 724 726 727 732 736 740 744 745 746 748 750 755 759 754 750 752 755 758 766 768 763 760 758 757 756 754 753 752 752 754 756 756 752 745 740 739 740 733 726 723 724 723 722 722 720 720 719 717 717 720